WXM80 ListenWXM80 Stop

You find our weather info also at:

UK Metoffice

WeatherCloud

Weather Underground

Northeastern Weather Network

AWEKAS

Citizen Weather Observer Program (CWOP)

HAMweather, WeatherForYou, PWS Weather


Weather Underground History page Text

Daily Summary for August 26, 2017 Units:  Metric    English   Both
« Previous Day
Next Day »
Daily Weekly Monthly Yearly Custom
  High: Low: Average:
Temperature: 26.9 °C 15.3 °C 20.9 °C
Dew Point: 15.9 °C 10.3 °C 13.4 °C
Humidity: 84 % 39 % 64 %
Wind Speed: 12.6 km/h 0 km/h 2.6 km/h
Wind Gust: 19.3 km/h - -
Wind:- - ESE
Pressure: 1023.6 hPa 1020.5 hPa -
Precipitation: 0 mm    
Historical Graphs
 
 
Tabular Data for August 26, 2017
Time Temperature Dew Point Pressure Wind Wind Speed Wind Gust Humidity Rainfall Rate (Hourly)
00:04 20.3 °C 15.7 °C 1020.5 hPa NNE 5 km/h 7.4 km/h 75 % 0 mm
00:09 20.3 °C 15.7 °C 1020.5 hPa North 4.8 km/h 9.3 km/h 75 % 0 mm
00:14 20.2 °C 15 °C 1020.5 hPa NNW 5.1 km/h 11.1 km/h 72 % 0 mm
00:19 20.2 °C 14.3 °C 1020.5 hPa North 6.4 km/h 13 km/h 69 % 0 mm
00:24 20.2 °C 14.1 °C 1020.5 hPa NNE 7.9 km/h 16.7 km/h 68 % 0 mm
00:29 20.2 °C 14.1 °C 1020.5 hPa North 6.9 km/h 9.7 km/h 68 % 0 mm
00:34 20.2 °C 14.1 °C 1020.9 hPa NNE 10.3 km/h 14.8 km/h 68 % 0 mm
00:39 20.2 °C 14.3 °C 1020.9 hPa NE 8.5 km/h 13 km/h 69 % 0 mm
00:44 20.2 °C 14.3 °C 1020.5 hPa NE 5.1 km/h 11.3 km/h 69 % 0 mm
00:49 20.2 °C 14.1 °C 1020.5 hPa North 5 km/h 13 km/h 68 % 0 mm
00:54 20.2 °C 14.1 °C 1020.5 hPa NNE 7.9 km/h 14.8 km/h 68 % 0 mm
00:59 20.1 °C 14.2 °C 1020.5 hPa North 9.5 km/h 14.5 km/h 69 % 0 mm
01:04 20.1 °C 14.2 °C 1020.5 hPa NNE 10.6 km/h 14.8 km/h 69 % 0 mm
01:09 20.1 °C 14.2 °C 1020.5 hPa NNE 6.6 km/h 11.1 km/h 69 % 0 mm
01:14 20 °C 14.1 °C 1020.5 hPa NNE 7.1 km/h 9.7 km/h 69 % 0 mm
01:19 19.9 °C 13.8 °C 1020.5 hPa NE 8.5 km/h 14.8 km/h 68 % 0 mm
01:24 19.9 °C 13.8 °C 1020.5 hPa NNE 7.1 km/h 13 km/h 68 % 0 mm
01:29 19.9 °C 13.8 °C 1020.5 hPa NNE 4.7 km/h 18.5 km/h 68 % 0 mm
01:34 19.8 °C 13.5 °C 1020.5 hPa North 9.3 km/h 13 km/h 67 % 0 mm
01:39 19.8 °C 13.5 °C 1020.5 hPa North 10 km/h 19.3 km/h 67 % 0 mm
01:44 19.8 °C 13.5 °C 1020.5 hPa North 7.9 km/h 13 km/h 67 % 0 mm
01:46 19.8 °C 13.5 °C 1020.5 hPa North 4.8 km/h 19.3 km/h 67 % 0 mm
01:51 19.8 °C 13.7 °C 1020.5 hPa NNE 11.3 km/h 19.3 km/h 68 % 0 mm
01:54 19.8 °C 13.4 °C 1020.5 hPa NNE 12.4 km/h 17.7 km/h 67 % 0 mm
02:00 19.7 °C 13.4 °C 1020.5 hPa NNW 12.6 km/h 14.8 km/h 67 % 0 mm
02:05 19.7 °C 13.1 °C 1020.5 hPa North 11.1 km/h 18.5 km/h 66 % 0 mm
02:10 19.7 °C 13.1 °C 1020.9 hPa North 10.3 km/h 18.5 km/h 66 % 0 mm
02:15 19.6 °C 13.6 °C 1020.9 hPa NE 8.7 km/h 14.8 km/h 68 % 0 mm
02:20 19.6 °C 13.7 °C 1020.9 hPa NNE 10.6 km/h 18.5 km/h 69 % 0 mm
02:25 19.5 °C 13.7 °C 1020.9 hPa North 5.1 km/h 13 km/h 69 % 0 mm
02:30 19.5 °C 13.7 °C 1020.9 hPa North 6.3 km/h 14.8 km/h 69 % 0 mm
02:35 19.4 °C 13.8 °C 1020.9 hPa NE 5.6 km/h 13 km/h 70 % 0 mm
02:40 19.4 °C 14 °C 1020.9 hPa North 5.8 km/h 13 km/h 71 % 0 mm
02:45 19.3 °C 13.9 °C 1020.9 hPa NNE 9.5 km/h 14.8 km/h 71 % 0 mm
02:50 19.3 °C 13.9 °C 1020.9 hPa North 3.2 km/h 5.6 km/h 71 % 0 mm
02:55 19.3 °C 13.9 °C 1020.9 hPa NNE 5.1 km/h 9.3 km/h 71 % 0 mm
03:00 19.2 °C 14.1 °C 1020.9 hPa NNE 7.4 km/h 11.1 km/h 72 % 0 mm
03:05 19.2 °C 14 °C 1020.9 hPa ENE 1.3 km/h 7.4 km/h 72 % 0 mm
03:10 19.1 °C 13.7 °C 1021.2 hPa NE 2.7 km/h 5.6 km/h 71 % 0 mm
03:15 19.1 °C 13.7 °C 1021.2 hPa North 3.7 km/h 8 km/h 71 % 0 mm
03:20 19 °C 13.6 °C 1021.2 hPa NNE 3.1 km/h 5.6 km/h 71 % 0 mm
03:25 18.9 °C 13.8 °C 1021.2 hPa NNE 3.5 km/h 11.1 km/h 72 % 0 mm
03:30 18.8 °C 13.7 °C 1021.2 hPa NE 5.3 km/h 11.1 km/h 72 % 0 mm
03:35 18.8 °C 13.6 °C 1021.2 hPa NNE 5.3 km/h 6.4 km/h 72 % 0 mm
03:40 18.7 °C 13.6 °C 1021.2 hPa North 0.5 km/h 7.4 km/h 72 % 0 mm
03:45 18.7 °C 13.7 °C 1021.2 hPa North 3.9 km/h 11.1 km/h 73 % 0 mm
03:50 18.6 °C 13.7 °C 1021.2 hPa NNE 0.8 km/h 5.6 km/h 73 % 0 mm
03:55 18.6 °C 13.4 °C 1021.2 hPa NNE 4.8 km/h 8 km/h 72 % 0 mm
04:00 18.5 °C 13.6 °C 1021.2 hPa NNE 6.3 km/h 9.3 km/h 73 % 0 mm
04:05 18.4 °C 13.5 °C 1021.2 hPa North 1.1 km/h 5.6 km/h 73 % 0 mm
04:10 18.4 °C 13.7 °C 1021.2 hPa NNE 0.2 km/h 1.9 km/h 74 % 0 mm
04:15 18.3 °C 13.6 °C 1021.6 hPa NNW 5.1 km/h 9.3 km/h 74 % 0 mm
04:20 18.3 °C 13.6 °C 1021.6 hPa NNE 4.7 km/h 8 km/h 74 % 0 mm
04:25 18.2 °C 13.5 °C 1021.6 hPa NE 6.1 km/h 9.7 km/h 74 % 0 mm
04:30 18.1 °C 13.4 °C 1021.6 hPa North 4.3 km/h 8 km/h 74 % 0 mm
04:35 18.1 °C 13.6 °C 1021.6 hPa NNW 4 km/h 9.3 km/h 75 % 0 mm
04:40 18 °C 13.5 °C 1021.6 hPa NW 2.9 km/h 7.4 km/h 75 % 0 mm
04:45 18 °C 13.5 °C 1021.6 hPa NNE 1.4 km/h 5.6 km/h 75 % 0 mm
04:50 17.9 °C 13.2 °C 1021.6 hPa North 0.3 km/h 1.9 km/h 74 % 0 mm
04:55 17.9 °C 13.4 °C 1021.6 hPa NNE 0.2 km/h 3.7 km/h 75 % 0 mm
05:00 17.8 °C 13.3 °C 1021.6 hPa NW 4.2 km/h 7.4 km/h 75 % 0 mm
05:05 17.8 °C 13.3 °C 1021.6 hPa North 3.4 km/h 5.6 km/h 75 % 0 mm
05:10 17.7 °C 13.4 °C 1021.9 hPa NNE 3.5 km/h 7.4 km/h 76 % 0 mm
05:16 17.7 °C 13.6 °C 1021.9 hPa NNE 3.2 km/h 9.7 km/h 77 % 0 mm
05:21 17.6 °C 13.6 °C 1021.9 hPa North 3.2 km/h 9.7 km/h 77 % 0 mm
05:26 17.6 °C 13.5 °C 1021.9 hPa North 1.6 km/h 9.7 km/h 77 % 0 mm
05:31 17.5 °C 13.2 °C 1021.9 hPa NNE 4.8 km/h 9.7 km/h 76 % 0 mm
05:36 17.5 °C 13.2 °C 1021.9 hPa North 3.2 km/h 8 km/h 76 % 0 mm
05:41 17.4 °C 13.2 °C 1021.9 hPa Calm   8 km/h 76 % 0 mm
05:46 17.4 °C 13.4 °C 1021.9 hPa North 3.2 km/h 8 km/h 77 % 0 mm
05:51 17.4 °C 13.3 °C 1022.2 hPa Calm   6.4 km/h 77 % 0 mm
05:56 17.3 °C 13.3 °C 1022.2 hPa Calm   6.4 km/h 77 % 0 mm
06:01 17.3 °C 13.3 °C 1022.2 hPa North 1.1 km/h 3.7 km/h 77 % 0 mm
06:06 17.3 °C 13.2 °C 1022.2 hPa NNE 1.6 km/h 6.4 km/h 77 % 0 mm
06:11 17.2 °C 13.2 °C 1022.2 hPa Calm     77 % 0 mm
06:12 17.2 °C 13.2 °C 1022.2 hPa Calm     77 % 0 mm
06:18 17.2 °C 13.3 °C 1022.2 hPa Calm     78 % 0 mm
06:23 17.2 °C 13.3 °C 1022.6 hPa Calm     78 % 0 mm
06:28 17.1 °C 13.2 °C 1022.6 hPa North 0.2 km/h 3.7 km/h 78 % 0 mm
06:33 17.1 °C 13.4 °C 1022.6 hPa North 1.1 km/h 5.6 km/h 79 % 0 mm
06:38 16.9 °C 13.3 °C 1022.6 hPa North 0.5 km/h 5.6 km/h 79 % 0 mm
06:43 16.9 °C 13.3 °C 1022.9 hPa Calm     79 % 0 mm
06:48 16.9 °C 13.2 °C 1022.6 hPa Calm   1.6 km/h 79 % 0 mm
06:53 16.9 °C 13.4 °C 1022.6 hPa Calm   1.9 km/h 80 % 0 mm
06:58 16.8 °C 13.6 °C 1022.6 hPa NNE 4.3 km/h 5.6 km/h 81 % 0 mm
07:03 16.8 °C 13.6 °C 1022.9 hPa NNE 2.3 km/h 5.6 km/h 81 % 0 mm
07:08 16.8 °C 13.6 °C 1022.9 hPa North 4.2 km/h 7.4 km/h 81 % 0 mm
07:13 16.9 °C 13.6 °C 1022.9 hPa NNE 4.5 km/h 7.4 km/h 81 % 0 mm
07:18 16.9 °C 13.6 °C 1022.9 hPa North 5.6 km/h 7.4 km/h 81 % 0 mm
07:23 16.9 °C 13.8 °C 1022.9 hPa North 1.3 km/h 6.4 km/h 82 % 0 mm
07:28 17 °C 13.9 °C 1022.9 hPa North 2.7 km/h 5.6 km/h 82 % 0 mm
07:33 17.1 °C 13.9 °C 1022.9 hPa North 3.1 km/h 7.4 km/h 82 % 0 mm
07:36 17.1 °C 14 °C 1022.9 hPa NNE 2.4 km/h 5.6 km/h 82 % 0 mm
07:41 17.2 °C 14.1 °C 1022.9 hPa North 3.2 km/h 6.4 km/h 82 % 0 mm
07:46 17.3 °C 14.2 °C 1022.9 hPa Calm   6.4 km/h 82 % 0 mm
07:51 17.3 °C 14.1 °C 1022.9 hPa NNE 1.6 km/h 4.8 km/h 81 % 0 mm
07:56 17.3 °C 14.1 °C 1022.9 hPa Calm   6.4 km/h 81 % 0 mm
08:01 17.4 °C 13.9 °C 1022.9 hPa NNE 2.3 km/h 6.4 km/h 80 % 0 mm
08:06 17.5 °C 14 °C 1022.9 hPa North 1.9 km/h 5.6 km/h 80 % 0 mm
08:11 17.6 °C 14.1 °C 1022.9 hPa NNE 1.1 km/h 7.4 km/h 80 % 0 mm
08:16 17.7 °C 14.2 °C 1023.2 hPa North 3.4 km/h 8 km/h 80 % 0 mm
08:21 17.7 °C 14.1 °C 1023.2 hPa North 4.3 km/h 7.4 km/h 79 % 0 mm
08:26 17.8 °C 14.1 °C 1022.9 hPa North 2.4 km/h 5.6 km/h 79 % 0 mm
08:31 17.8 °C 14.2 °C 1022.9 hPa NNE 4.7 km/h 4.7 km/h 79 % 0 mm
08:36 17.9 °C 14.2 °C 1022.9 hPa NNE 3.1 km/h 6.4 km/h 79 % 0 mm
08:41 17.9 °C 14.2 °C 1022.9 hPa North 0.3 km/h 5.6 km/h 79 % 0 mm
08:46 18 °C 14.1 °C 1022.9 hPa NE 4 km/h 11.1 km/h 78 % 0 mm
08:51 18.1 °C 13.8 °C 1022.9 hPa ENE 2.3 km/h 6.4 km/h 76 % 0 mm
08:56 18.3 °C 14.2 °C 1022.9 hPa NNE 1.9 km/h 5.6 km/h 77 % 0 mm
09:01 18.3 °C 14 °C 1022.9 hPa NE 4.8 km/h 11.3 km/h 76 % 0 mm
09:06 18.4 °C 13.9 °C 1022.9 hPa NE 3.9 km/h 7.4 km/h 75 % 0 mm
09:11 18.6 °C 14.2 °C 1022.9 hPa NNE 3.2 km/h 8 km/h 76 % 0 mm
09:16 18.7 °C 14.3 °C 1022.9 hPa North 4 km/h 5.6 km/h 76 % 0 mm
09:21 18.7 °C 14.2 °C 1023.2 hPa NE 6.9 km/h 11.1 km/h 75 % 0 mm
09:26 18.8 °C 14.3 °C 1023.2 hPa NNE 2.3 km/h 5.6 km/h 75 % 0 mm
09:31 19 °C 14.1 °C 1023.2 hPa North 6.1 km/h 8 km/h 73 % 0 mm
09:36 19.1 °C 13.9 °C 1023.2 hPa NE 5.5 km/h 8 km/h 72 % 0 mm
09:41 19.3 °C 14.1 °C 1023.2 hPa NE 3.2 km/h 7.4 km/h 72 % 0 mm
09:46 19.5 °C 14.1 °C 1023.2 hPa NNE 1.6 km/h 5.6 km/h 71 % 0 mm
09:51 19.8 °C 14.2 °C 1023.2 hPa NNE 2.3 km/h 5.6 km/h 70 % 0 mm
09:56 20.2 °C 14.3 °C 1023.2 hPa NNE 1.4 km/h 5.6 km/h 69 % 0 mm
10:01 20.7 °C 14.8 °C 1023.2 hPa NNE 2.3 km/h 3.7 km/h 69 % 0 mm
10:06 20.9 °C 14.3 °C 1023.6 hPa ENE 3.2 km/h 5.6 km/h 66 % 0 mm
10:11 21.1 °C 13.7 °C 1023.6 hPa NNE 4.3 km/h 7.4 km/h 63 % 0 mm
10:16 21.1 °C 13.8 °C 1023.2 hPa North 5.6 km/h 11.1 km/h 63 % 0 mm
10:21 21.1 °C 14.5 °C 1023.6 hPa North 6.6 km/h 7.4 km/h 66 % 0 mm
10:26 21.1 °C 14 °C 1023.6 hPa NE 4.8 km/h 7.4 km/h 64 % 0 mm
10:31 21 °C 13.9 °C 1023.2 hPa NE 3.7 km/h 6.4 km/h 64 % 0 mm
10:36 21.1 °C 14.2 °C 1023.6 hPa NE 3.5 km/h 9.3 km/h 65 % 0 mm
10:41 21.2 °C 13.8 °C 1023.6 hPa NNE 9.8 km/h 13 km/h 63 % 0 mm
10:46 21.4 °C 14.3 °C 1023.6 hPa North 5 km/h 9.7 km/h 64 % 0 mm
10:52 21.7 °C 14.3 °C 1023.6 hPa North 6.9 km/h 9.3 km/h 63 % 0 mm
10:57 21.9 °C 14.3 °C 1023.6 hPa ENE 2.1 km/h 7.4 km/h 62 % 0 mm
11:02 22.4 °C 14 °C 1023.6 hPa North 5.5 km/h 11.1 km/h 59 % 0 mm
11:07 22.8 °C 15.2 °C 1023.6 hPa NE 3.1 km/h 5.6 km/h 62 % 0 mm
11:12 23.4 °C 15.2 °C 1023.6 hPa ENE 7.7 km/h 11.1 km/h 60 % 0 mm
11:17 23.7 °C 14.1 °C 1023.6 hPa ENE 2.9 km/h 11.1 km/h 55 % 0 mm
11:22 24.2 °C 15.9 °C 1023.6 hPa NNW 3.9 km/h 6.4 km/h 60 % 0 mm
11:27 24.6 °C 15.2 °C 1023.2 hPa North 5.3 km/h 6.4 km/h 56 % 0 mm
11:32 24.8 °C 15.1 °C 1023.2 hPa ENE 4.5 km/h 7.4 km/h 55 % 0 mm
11:37 24.8 °C 14.9 °C 1023.2 hPa NE 1.3 km/h 5.6 km/h 54 % 0 mm
11:42 25.1 °C 14.6 °C 1023.2 hPa ENE 3.1 km/h 5.6 km/h 52 % 0 mm
11:47 25.4 °C 15.1 °C 1023.2 hPa NNE 2.3 km/h 6.4 km/h 53 % 0 mm
11:52 25.6 °C 15.3 °C 1023.2 hPa East 4.5 km/h 8 km/h 53 % 0 mm
11:57 25.8 °C 15.5 °C 1023.2 hPa NE 2.4 km/h 8 km/h 53 % 0 mm
12:02 25.7 °C 13.9 °C 1022.9 hPa NNE 5.8 km/h 9.3 km/h 48 % 0 mm
12:07 25.8 °C 15.5 °C 1022.9 hPa NNE 1.4 km/h 5.6 km/h 53 % 0 mm
12:12 25.9 °C 14.3 °C 1022.9 hPa ENE 3.9 km/h 5.6 km/h 49 % 0 mm
12:17 25.8 °C 14.9 °C 1022.9 hPa North 4.2 km/h 11.1 km/h 51 % 0 mm
12:22 25.9 °C 13.7 °C 1022.9 hPa ENE 1.8 km/h 5.6 km/h 47 % 0 mm
12:28 25.9 °C 14.7 °C 1022.6 hPa NNW 4 km/h 7.4 km/h 50 % 0 mm
12:33 25.9 °C 15 °C 1022.6 hPa North 3.1 km/h 7.4 km/h 51 % 0 mm
12:38 25.8 °C 14 °C 1022.6 hPa North 2.6 km/h 7.4 km/h 48 % 0 mm
12:43 25.9 °C 14.1 °C 1022.6 hPa North 3.9 km/h 9.3 km/h 48 % 0 mm
12:48 25.9 °C 14.1 °C 1022.9 hPa NNE 2.6 km/h 5.6 km/h 48 % 0 mm
12:53 25.9 °C 15.3 °C 1022.6 hPa North 2.6 km/h 6.4 km/h 52 % 0 mm
12:58 26 °C 13.8 °C 1022.6 hPa North 2.4 km/h 6.4 km/h 47 % 0 mm
13:03 25.9 °C 14.1 °C 1022.6 hPa NNE 1.1 km/h 3.2 km/h 48 % 0 mm
13:08 26 °C 14.4 °C 1022.6 hPa NNE 2.3 km/h 8 km/h 49 % 0 mm
13:13 26 °C 14.1 °C 1022.9 hPa ENE 2.4 km/h 3.7 km/h 48 % 0 mm
13:18 26 °C 13.8 °C 1022.6 hPa NNE 1.9 km/h 5.6 km/h 47 % 0 mm
13:23 25.9 °C 13.4 °C 1022.6 hPa NE 2.1 km/h 6.4 km/h 46 % 0 mm
13:28 25.9 °C 13.4 °C 1022.6 hPa NNE 0.6 km/h 5.6 km/h 46 % 0 mm
13:33 26 °C 13.2 °C 1022.6 hPa ENE 0.3 km/h 5.6 km/h 45 % 0 mm
13:38 26 °C 13.2 °C 1022.6 hPa NE 0.6 km/h 1.9 km/h 45 % 0 mm
13:43 26.1 °C 12.5 °C 1022.6 hPa NE 0.5 km/h 3.7 km/h 43 % 0 mm
13:48 26.1 °C 12.9 °C 1022.6 hPa NE 3.5 km/h 5.6 km/h 44 % 0 mm
13:54 26.2 °C 13.9 °C 1022.6 hPa NE 2.3 km/h 11.3 km/h 47 % 0 mm
13:59 26.1 °C 13.6 °C 1022.6 hPa North 1.4 km/h 3.7 km/h 46 % 0 mm
14:04 26.2 °C 12.9 °C 1022.6 hPa NE 1.4 km/h 3.7 km/h 44 % 0 mm
14:09 26.2 °C 13.7 °C 1022.6 hPa Calm   5.6 km/h 46 % 0 mm
14:14 26.3 °C 13.8 °C 1022.6 hPa NE 0.6 km/h 3.7 km/h 46 % 0 mm
14:19 26.4 °C 12.8 °C 1022.2 hPa SE 1.4 km/h 3.7 km/h 43 % 0 mm
14:24 26.5 °C 12.9 °C 1022.2 hPa SE 0.3 km/h 3.7 km/h 43 % 0 mm
14:29 26.5 °C 12.6 °C 1022.2 hPa Calm   1.9 km/h 42 % 0 mm
14:34 26.6 °C 12.6 °C 1022.2 hPa NNE 0.2 km/h 3.7 km/h 42 % 0 mm
14:39 26.7 °C 13.1 °C 1021.9 hPa NNE 0.2 km/h 1.9 km/h 43 % 0 mm
14:44 26.7 °C 12.7 °C 1022.2 hPa NNE 1.1 km/h 5.6 km/h 42 % 0 mm
14:49 26.8 °C 12.5 °C 1021.9 hPa North 2.1 km/h 5.6 km/h 41 % 0 mm
14:54 26.9 °C 12.9 °C 1021.9 hPa North 2.7 km/h 5.6 km/h 42 % 0 mm
14:59 26.9 °C 12.2 °C 1021.9 hPa NNW 0.6 km/h 3.7 km/h 40 % 0 mm
15:04 26.9 °C 12.2 °C 1021.9 hPa Calm     40 % 0 mm
15:09 26.8 °C 12.8 °C 1021.9 hPa North 2.7 km/h 4.8 km/h 42 % 0 mm
15:14 26.8 °C 12.1 °C 1021.9 hPa NNE 0.6 km/h 3.7 km/h 40 % 0 mm
15:19 26.8 °C 12.4 °C 1021.9 hPa NE 4.5 km/h 5.6 km/h 41 % 0 mm
15:24 26.6 °C 13.3 °C 1021.9 hPa NE 0.3 km/h 3.7 km/h 44 % 0 mm
15:29 26.5 °C 12.9 °C 1021.9 hPa NW 2.4 km/h 5.6 km/h 43 % 0 mm
15:35 26.5 °C 12.6 °C 1021.6 hPa WNW 1.6 km/h 6.4 km/h 42 % 0 mm
15:39 26.5 °C 12.2 °C 1021.6 hPa Calm   1.9 km/h 41 % 0 mm
15:44 26.6 °C 12.9 °C 1021.6 hPa NNE 2.3 km/h 5.6 km/h 43 % 0 mm
15:49 26.4 °C 13.2 °C 1021.6 hPa NW 1.8 km/h 1.9 km/h 44 % 0 mm
15:55 26.4 °C 12.5 °C 1021.6 hPa Calm     42 % 0 mm
15:58 26.4 °C 13.2 °C 1021.6 hPa WNW 0.5 km/h 3.7 km/h 44 % 0 mm
16:03 26.3 °C 13.1 °C 1021.6 hPa WNW 1 km/h 3.2 km/h 44 % 0 mm
16:08 26.3 °C 13.8 °C 1021.6 hPa NW 0.2 km/h 1.9 km/h 46 % 0 mm
16:13 26.4 °C 12.8 °C 1021.6 hPa West 1.8 km/h 3.7 km/h 43 % 0 mm
16:18 26.5 °C 12.2 °C 1021.6 hPa West 2.7 km/h 5.6 km/h 41 % 0 mm
16:23 26.5 °C 12.6 °C 1021.6 hPa WSW 2.6 km/h 5.6 km/h 42 % 0 mm
16:28 26.4 °C 13.2 °C 1021.6 hPa WSW 1.9 km/h 7.4 km/h 44 % 0 mm
16:33 26.3 °C 11.7 °C 1021.6 hPa SW 1.1 km/h 5.6 km/h 40 % 0 mm
16:38 26.3 °C 12.7 °C 1021.6 hPa SW 1.8 km/h 1.9 km/h 43 % 0 mm
16:43 26.2 °C 12.2 °C 1021.6 hPa SW 1.6 km/h 3.7 km/h 42 % 0 mm
16:48 26.1 °C 11.8 °C 1021.6 hPa WSW 1.1 km/h 5.6 km/h 41 % 0 mm
16:54 25.9 °C 12.1 °C 1021.6 hPa West 1.9 km/h 5.6 km/h 42 % 0 mm
16:59 25.9 °C 12 °C 1021.2 hPa West 0.8 km/h 5.6 km/h 42 % 0 mm
17:04 25.8 °C 12.3 °C 1021.2 hPa Calm     43 % 0 mm
17:09 25.8 °C 11.2 °C 1021.6 hPa West 2.6 km/h 5.6 km/h 40 % 0 mm
17:14 25.8 °C 10.8 °C 1021.6 hPa Calm   1.9 km/h 39 % 0 mm
17:19 25.7 °C 12.6 °C 1021.6 hPa West 0.5 km/h 1.9 km/h 44 % 0 mm
17:24 25.6 °C 10.9 °C 1021.6 hPa Calm     40 % 0 mm
17:29 25.5 °C 10.5 °C 1021.6 hPa Calm     39 % 0 mm
17:34 25.4 °C 11.6 °C 1021.6 hPa West 1.6 km/h 5.6 km/h 42 % 0 mm
17:39 25.3 °C 12.6 °C 1021.6 hPa Calm   1.9 km/h 45 % 0 mm
17:44 25.2 °C 11.3 °C 1021.6 hPa Calm     42 % 0 mm
17:49 25.1 °C 11.3 °C 1021.6 hPa Calm   1.9 km/h 42 % 0 mm
17:54 25 °C 11.2 °C 1021.6 hPa Calm     42 % 0 mm
17:59 24.9 °C 10.3 °C 1021.6 hPa Calm     40 % 0 mm
18:04 24.8 °C 11.1 °C 1021.6 hPa West 0.8 km/h 1.9 km/h 42 % 0 mm
18:09 24.7 °C 10.9 °C 1021.6 hPa Calm   1.9 km/h 42 % 0 mm
18:15 24.4 °C 10.3 °C 1021.6 hPa West 0.5 km/h 1.9 km/h 41 % 0 mm
18:20 24.3 °C 10.9 °C 1021.6 hPa Calm     43 % 0 mm
18:25 24.2 °C 10.8 °C 1021.6 hPa Calm     43 % 0 mm
18:30 24 °C 11.3 °C 1021.6 hPa Calm     45 % 0 mm
18:35 23.9 °C 11.2 °C 1021.6 hPa Calm     45 % 0 mm
18:40 23.7 °C 12.1 °C 1021.6 hPa Calm     48 % 0 mm
18:45 23.6 °C 12.5 °C 1021.6 hPa Calm     50 % 0 mm
18:50 23.4 °C 13.6 °C 1021.6 hPa Calm     54 % 0 mm
18:55 23.3 °C 14 °C 1021.6 hPa Calm     56 % 0 mm
19:00 23.1 °C 13.5 °C 1021.6 hPa Calm     55 % 0 mm
19:03 22.9 °C 13.7 °C 1021.6 hPa Calm     56 % 0 mm
19:08 22.7 °C 13.8 °C 1021.6 hPa Calm     57 % 0 mm
19:13 22.4 °C 13.8 °C 1021.6 hPa Calm     58 % 0 mm
19:18 22.2 °C 13.8 °C 1021.6 hPa Calm     59 % 0 mm
19:24 22 °C 14.1 °C 1021.6 hPa Calm     61 % 0 mm
19:29 21.7 °C 13.9 °C 1021.6 hPa Calm     61 % 0 mm
19:34 21.5 °C 13.9 °C 1021.6 hPa Calm     62 % 0 mm
19:39 21.3 °C 13.4 °C 1021.6 hPa Calm     61 % 0 mm
19:44 21 °C 13.4 °C 1021.6 hPa Calm     62 % 0 mm
19:49 20.7 °C 13.4 °C 1021.9 hPa Calm     63 % 0 mm
19:54 20.3 °C 13.6 °C 1021.9 hPa Calm     65 % 0 mm
19:59 20.1 °C 13.3 °C 1021.9 hPa Calm     65 % 0 mm
20:04 19.9 °C 13.4 °C 1021.9 hPa Calm     66 % 0 mm
20:09 19.7 °C 13.4 °C 1021.9 hPa Calm     67 % 0 mm
20:14 19.6 °C 13.3 °C 1021.9 hPa Calm     67 % 0 mm
20:19 19.4 °C 13.3 °C 1021.9 hPa Calm     68 % 0 mm
20:24 19.2 °C 13.4 °C 1022.2 hPa Calm     69 % 0 mm
20:29 19.1 °C 13.2 °C 1022.2 hPa Calm     69 % 0 mm
20:34 18.9 °C 13.3 °C 1022.2 hPa Calm     70 % 0 mm
20:39 18.7 °C 13.6 °C 1022.2 hPa Calm     72 % 0 mm
20:44 18.6 °C 13.4 °C 1022.2 hPa Calm     72 % 0 mm
20:49 18.4 °C 13.3 °C 1022.2 hPa Calm     72 % 0 mm
20:54 18.3 °C 13.2 °C 1022.2 hPa Calm     72 % 0 mm
20:59 18.2 °C 13.1 °C 1022.2 hPa Calm     72 % 0 mm
21:04 18.1 °C 13.4 °C 1022.6 hPa West 1.8 km/h 3.7 km/h 74 % 0 mm
21:09 18 °C 13.3 °C 1022.6 hPa Calm     74 % 0 mm
21:14 17.9 °C 13.2 °C 1022.6 hPa West 0.3 km/h 1.9 km/h 74 % 0 mm
21:19 17.8 °C 13.1 °C 1022.6 hPa Calm     74 % 0 mm
21:24 17.7 °C 13 °C 1022.6 hPa West 0.2 km/h   74 % 0 mm
21:29 17.6 °C 13.3 °C 1022.6 hPa Calm     76 % 0 mm
21:34 17.5 °C 13.4 °C 1022.6 hPa Calm     77 % 0 mm
21:39 17.4 °C 13.3 °C 1022.6 hPa Calm     77 % 0 mm
21:44 17.3 °C 13.3 °C 1022.6 hPa Calm     77 % 0 mm
21:49 17.2 °C 13.3 °C 1022.6 hPa Calm     78 % 0 mm
21:54 17.1 °C 13.2 °C 1022.6 hPa Calm     78 % 0 mm
21:59 17 °C 13.1 °C 1022.6 hPa Calm     78 % 0 mm
22:04 16.9 °C 13 °C 1022.6 hPa Calm     78 % 0 mm
22:09 16.8 °C 13.1 °C 1022.6 hPa Calm     79 % 0 mm
22:15 16.7 °C 13.2 °C 1022.6 hPa Calm     80 % 0 mm
22:20 16.6 °C 13.2 °C 1022.6 hPa Calm     80 % 0 mm
22:25 16.5 °C 13.1 °C 1022.6 hPa Calm     80 % 0 mm
22:30 16.4 °C 13.1 °C 1022.6 hPa Calm   1.6 km/h 81 % 0 mm
22:35 16.3 °C 13 °C 1022.6 hPa Calm   1.9 km/h 81 % 0 mm
22:40 16.2 °C 13.2 °C 1022.9 hPa West 0.6 km/h 3.7 km/h 82 % 0 mm
22:45 16.1 °C 13.1 °C 1022.9 hPa Calm     82 % 0 mm
22:50 16.1 °C 13 °C 1022.9 hPa Calm   1.9 km/h 82 % 0 mm
22:55 15.9 °C 12.9 °C 1022.9 hPa Calm   1.9 km/h 82 % 0 mm
23:00 15.9 °C 12.8 °C 1022.9 hPa Calm     82 % 0 mm
23:05 15.8 °C 12.8 °C 1022.9 hPa Calm   1.9 km/h 82 % 0 mm
23:10 15.8 °C 12.7 °C 1022.9 hPa Calm     82 % 0 mm
23:15 15.7 °C 12.7 °C 1022.9 hPa Calm     82 % 0 mm
23:20 15.7 °C 12.6 °C 1022.9 hPa Calm     82 % 0 mm
23:25 15.6 °C 12.6 °C 1022.9 hPa Calm     82 % 0 mm
23:30 15.6 °C 12.5 °C 1022.9 hPa Calm     82 % 0 mm
23:35 15.5 °C 12.4 °C 1022.9 hPa Calm     82 % 0 mm
23:40 15.5 °C 12.6 °C 1022.9 hPa Calm     83 % 0 mm
23:45 15.4 °C 12.5 °C 1022.9 hPa West 0.3 km/h 1.6 km/h 83 % 0 mm
23:50 15.3 °C 12.7 °C 1022.9 hPa Calm     84 % 0 mm
23:55 15.3 °C 12.4 °C 1022.9 hPa West 0.2 km/h   83 % 0 mm
Crab Meadow Weather
Compliments of Weather Underground - 3 mb

Script developed by  Jim McMurry - jmcmurry@mwt.net Adapted for the template by  Wim van der Kuil - Leuven-Template.eu

Weather Terms: Dew Point - A measure of atmospheric moisture. It is the temperature to which air must be cooled in order to reach saturation (assuming pressure and moisture content are constant).